Location: Marengo
(51.4813°N, 109.7825°W)
Time: 02:43:12
(UTC+00:00)

ISS - Visible Passes

Search period start: 19 January 2022 00:00
Search period end: 29 January 2022 00:00
Orbit: 413 x 423 km, 51.6° (Epoch: 18 January)

Date Brightness Start Highest point End Pass type
(mag) Time Alt. Az. Time Alt. Az. Time Alt. Az.
19 Jan -1.0 02:34:38 10° SW 02:35:11 13° SSW 02:35:11 13° SSW visible
20 Jan -2.1 01:47:08 10° SSW 01:49:25 22° SSE 01:49:25 22° SSE visible
21 Jan -1.7 00:59:54 10° S 01:02:04 16° SE 01:03:34 13° ESE visible
21 Jan -1.6 02:35:04 10° WSW 02:36:31 23° SW 02:36:31 23° SW visible
22 Jan -3.2 01:47:15 10° SW 01:50:25 43° SSE 01:50:36 42° SE visible
23 Jan -2.6 00:59:32 10° SW 01:02:32 31° SSE 01:04:39 16° E visible
23 Jan -1.9 02:35:44 10° WSW 02:37:35 30° WSW 02:37:35 30° WSW visible
24 Jan -3.8 01:47:46 10° WSW 01:51:06 71° SSE 01:51:34 59° ESE visible
25 Jan -3.4 00:59:50 10° WSW 01:03:07 56° SSE 01:05:32 17° E visible
25 Jan -2.0 02:36:30 10° W 02:38:28 33° W 02:38:28 33° W visible
26 Jan -3.9 01:48:27 10° W 01:51:49 88° N 01:52:24 58° E visible
26 Jan -0.2 03:25:15 10° W 03:25:20 10° W 03:25:20 10° W visible
27 Jan -3.8 01:00:25 10° WSW 01:03:46 83° S 01:06:20 16° E visible
27 Jan -2.1 02:37:13 10° W 02:39:16 34° W 02:39:16 34° W visible
28 Jan -3.9 01:49:10 10° W 01:52:31 87° N 01:53:12 54° E visible
28 Jan -0.2 03:25:58 10° W 03:26:08 11° W 03:26:08 11° W visible
